2022-155B (54252 NORAD) Tracking and Keplerian Element Data

This shows tracking and keplerian element data for the satellite.

Feedback or suggestion? Click here.




ElementValue
Catalog54252
Name2022-155B
Epoch Orbit75
Epoch Day325.22561782
Epoch Year2022
RAAN69.9158
Inclination97.5367
Eccentricity0.0013101
Argument of Perigee272.577
Mean Anonmoly154.3959
Mean Motion15.09337832
Decay Rate4.276E-05
L11 54252U 22155B 22325.22561782 .00004276 00000+0 27149-3 0 9994
L22 54252 97.5367 69.9158 0013101 272.5770 154.3959 15.09337832 750



Live tracking and technical data element details for 2022-155B (NORAD 54252). 2022-155B can be tracked NOW for your location showing map with azimuth and elevation plus other details from your city location.







IsCatalogInMostPopularTable: catalog: 54252, numindb: 4
Update: records affected: 1



GetName: 54252 2022-155B

Hit Count: updated at: Sun, 04 Dec 2022 22:58:24 GMT